• In Deutschland
  • Länderverzeichnis
  • Für 7 Tage
  • Wassertemperatur
  • Satellitenkarten
  • Wetterkarte
  • Widgets
  • user-avatar
    Anmelden

    Stündliche Wetter Ilmenau

    Heute, 14 Dezember, Donnerstag

    Zeit Temperatur Niederschläge Wind Luftdruck Luftfeuchtigkeit
    00:00 -1°C° 0,5 mm 7 m/S 698 mmHg 85%
    01:00 -1°C° 0 mm 7 m/S 697 mmHg 84%
    02:00 -1°C° 0,9 mm 7 m/S 696 mmHg 85%
    03:00 +1°C° 0,9 mm 6 m/S 696 mmHg 86%
    04:00 +1°C° 0,9 mm 6 m/S 696 mmHg 87%
    05:00 +1°C° 0,3 mm 6 m/S 696 mmHg 86%
    06:00 0°C° 0,3 mm 7 m/S 696 mmHg 85%
    07:00 -1°C° 0 mm 6 m/S 697 mmHg 81%
    08:00 -2°C° 0,2 mm 7 m/S 697 mmHg 78%
    09:00 -3°C° 0,2 mm 9 m/S 698 mmHg 75%
    10:00 -3°C° 0,2 mm 10 m/S 699 mmHg 72%
    11:00 -3°C° 0 mm 9 m/S 699 mmHg 72%
    12:00 -1°C° 0 mm 8 m/S 700 mmHg 72%
    13:00 -1°C° 0 mm 7 m/S 700 mmHg 73%
    14:00 -1°C° 0,5 mm 7 m/S 700 mmHg 76%
    15:00 -1°C° 0,5 mm 6 m/S 699 mmHg 80%
    16:00 -1°C° 0,5 mm 6 m/S 699 mmHg 83%
    17:00 -1°C° 0,4 mm 6 m/S 699 mmHg 84%
    18:00 0°C° 0,4 mm 5 m/S 699 mmHg 85%
    19:00 0°C° 0,4 mm 5 m/S 698 mmHg 86%
    20:00 -1°C° 0,2 mm 5 m/S 698 mmHg 87%
    21:00 -1°C° 0,2 mm 4 m/S 698 mmHg 89%
    22:00 -1°C° 0,2 mm 4 m/S 698 mmHg 90%
    23:00 0°C° 0,3 mm 3 m/S 698 mmHg 91%

    Morgen, 15 Dezember, Freitag

    Zeit Temperatur Niederschläge Wind Luftdruck Luftfeuchtigkeit
    00:00 0°C° 0,3 mm 3 m/S 697 mmHg 92%
    01:00 +1°C° 0,3 mm 2 m/S 697 mmHg 93%
    02:00 +1°C° 0,7 mm 2 m/S 697 mmHg 94%
    03:00 +1°C° 0,7 mm 2 m/S 697 mmHg 94%
    04:00 +1°C° 0,7 mm 2 m/S 696 mmHg 95%
    05:00 +1°C° 0,5 mm 2 m/S 697 mmHg 94%
    06:00 -1°C° 0,5 mm 3 m/S 698 mmHg 94%
    07:00 -1°C° 0,5 mm 3 m/S 698 mmHg 93%
    08:00 -2°C° 0,1 mm 4 m/S 699 mmHg 92%
    09:00 -2°C° 0,1 mm 4 m/S 700 mmHg 90%
    10:00 -2°C° 0,1 mm 4 m/S 700 mmHg 89%
    11:00 -1°C° 0,1 mm 4 m/S 701 mmHg 87%
    12:00 -1°C° 0,1 mm 4 m/S 701 mmHg 86%
    13:00 -1°C° 0,1 mm 4 m/S 701 mmHg 84%
    14:00 0°C° 0,2 mm 3 m/S 701 mmHg 86%
    15:00 0°C° 0,2 mm 3 m/S 701 mmHg 88%
    16:00 -1°C° 0,2 mm 2 m/S 701 mmHg 91%
    17:00 -1°C° 0,2 mm 2 m/S 702 mmHg 91%
    18:00 -1°C° 0,2 mm 2 m/S 702 mmHg 92%
    19:00 -1°C° 0,2 mm 3 m/S 702 mmHg 92%
    20:00 -1°C° 0 mm 2 m/S 702 mmHg 93%
    21:00 -2°C° 0 mm 2 m/S 703 mmHg 93%
    22:00 -2°C° 0 mm 2 m/S 703 mmHg 94%
    23:00 -2°C° 0 mm 2 m/S 703 mmHg 94%

    übermorgen, 16 Dezember, Samstag

    Zeit Temperatur Niederschläge Wind Luftdruck Luftfeuchtigkeit
    00:00 -2°C° 0 mm 2 m/S 704 mmHg 95%
    01:00 -2°C° 0 mm 2 m/S 704 mmHg 95%
    02:00 -2°C° 0 mm 2 m/S 704 mmHg 95%
    03:00 -2°C° 0 mm 2 m/S 704 mmHg 96%
    04:00 -2°C° 0 mm 2 m/S 705 mmHg 96%
    05:00 -2°C° 0 mm 2 m/S 705 mmHg 96%
    06:00 -2°C° 0 mm 2 m/S 706 mmHg 96%
    07:00 -2°C° 0 mm 2 m/S 706 mmHg 96%
    08:00 -2°C° 0,1 mm 2 m/S 707 mmHg 95%
    09:00 -2°C° 0,1 mm 2 m/S 707 mmHg 94%
    10:00 -1°C° 0,1 mm 3 m/S 708 mmHg 93%
    11:00 -1°C° 0,1 mm 3 m/S 708 mmHg 91%
    12:00 -1°C° 0,1 mm 4 m/S 709 mmHg 89%
    13:00 -1°C° 0,1 mm 4 m/S 709 mmHg 87%
    14:00 -2°C° 0,1 mm 4 m/S 709 mmHg 87%
    15:00 -2°C° 0,1 mm 4 m/S 709 mmHg 87%
    16:00 -1°C° 0,1 mm 3 m/S 710 mmHg 87%
    17:00 -3°C° 0 mm 4 m/S 710 mmHg 89%
    18:00 -3°C° 0 mm 4 m/S 711 mmHg 90%
    19:00 -4°C° 0 mm 4 m/S 711 mmHg 91%
    20:00 -4°C° 0 mm 3 m/S 712 mmHg 92%
    21:00 -4°C° 0 mm 3 m/S 712 mmHg 92%
    22:00 -4°C° 0 mm 3 m/S 713 mmHg 92%
    23:00 -4°C° 0 mm 3 m/S 713 mmHg 92%

    17 Dezember, Sonntag

    Zeit Temperatur Niederschläge Wind Luftdruck Luftfeuchtigkeit
    00:00 -5°C° 0 mm 3 m/S 713 mmHg 93%
    01:00 -5°C° 0 mm 3 m/S 714 mmHg 93%
    02:00 -5°C° 0 mm 4 m/S 714 mmHg 92%
    03:00 -5°C° 0 mm 4 m/S 714 mmHg 92%
    04:00 -4°C° 0 mm 4 m/S 715 mmHg 92%
    05:00 -4°C° 0 mm 4 m/S 715 mmHg 92%
    06:00 -4°C° 0 mm 4 m/S 716 mmHg 91%
    07:00 -4°C° 0 mm 4 m/S 716 mmHg 91%
    08:00 -4°C° 0 mm 4 m/S 717 mmHg 90%
    09:00 -4°C° 0 mm 4 m/S 717 mmHg 89%
    10:00 -3°C° 0 mm 4 m/S 718 mmHg 88%
    11:00 -3°C° 0 mm 4 m/S 718 mmHg 86%
    12:00 -2°C° 0 mm 5 m/S 719 mmHg 85%
    13:00 -2°C° 0 mm 5 m/S 719 mmHg 83%
    14:00 -2°C° 0,1 mm 4 m/S 719 mmHg 85%
    15:00 -2°C° 0,1 mm 4 m/S 719 mmHg 86%
    16:00 -3°C° 0,1 mm 4 m/S 719 mmHg 87%
    17:00 -3°C° 0,1 mm 4 m/S 720 mmHg 88%
    18:00 -3°C° 0,1 mm 4 m/S 720 mmHg 90%
    19:00 -3°C° 0,1 mm 4 m/S 720 mmHg 92%
    20:00 -3°C° 0,1 mm 4 m/S 720 mmHg 92%
    21:00 -3°C° 0,1 mm 4 m/S 721 mmHg 92%
    22:00 -3°C° 0,1 mm 4 m/S 721 mmHg 92%
    23:00 -3°C° 0,1 mm 4 m/S 721 mmHg 91%

    18 Dezember, Montag

    Zeit Temperatur Niederschläge Wind Luftdruck Luftfeuchtigkeit
    00:00 -4°C° 0,1 mm 5 m/S 720 mmHg 91%
    01:00 -4°C° 0,1 mm 5 m/S 720 mmHg 90%
    02:00 -4°C° 0,3 mm 6 m/S 719 mmHg 90%
    03:00 -4°C° 0,3 mm 6 m/S 718 mmHg 89%
    04:00 -4°C° 0,3 mm 7 m/S 718 mmHg 89%
    05:00 -3°C° 1,6 mm 7 m/S 717 mmHg 89%
    06:00 -2°C° 1,6 mm 7 m/S 716 mmHg 89%
    07:00 -2°C° 1,6 mm 8 m/S 715 mmHg 90%
    08:00 -1°C° 1,5 mm 7 m/S 715 mmHg 92%
    09:00 -1°C° 1,5 mm 6 m/S 715 mmHg 94%
    10:00 +1°C° 1,5 mm 6 m/S 715 mmHg 96%
    11:00 0°C° 0,1 mm 5 m/S 715 mmHg 94%
    12:00 0°C° 0,1 mm 5 m/S 715 mmHg 93%
    13:00 0°C° 0,1 mm 5 m/S 715 mmHg 91%
    14:00 0°C° 0,3 mm 5 m/S 715 mmHg 91%
    15:00 0°C° 0,3 mm 5 m/S 715 mmHg 91%
    16:00 -1°C° 0,3 mm 6 m/S 716 mmHg 91%
    17:00 0°C° 0,1 mm 5 m/S 716 mmHg 92%
    18:00 -1°C° 0,1 mm 5 m/S 717 mmHg 92%
    19:00 -1°C° 0,1 mm 4 m/S 718 mmHg 93%
    20:00 -1°C° 0,1 mm 4 m/S 718 mmHg 94%
    21:00 -1°C° 0,1 mm 4 m/S 719 mmHg 95%
    22:00 0°C° 0,1 mm 3 m/S 720 mmHg 96%
    23:00 0°C° 0,1 mm 3 m/S 721 mmHg 96%

    19 Dezember, Dienstag

    Zeit Temperatur Niederschläge Wind Luftdruck Luftfeuchtigkeit
    00:00 -1°C° 0,1 mm 3 m/S 721 mmHg 96%
    01:00 -1°C° 0,1 mm 2 m/S 722 mmHg 96%
    02:00 -1°C° 0 mm 2 m/S 722 mmHg 96%
    03:00 -2°C° 0 mm 2 m/S 723 mmHg 96%
    04:00 0°C° 0 mm 1 m/S 723 mmHg 96%
    05:00 0°C° 0 mm 1 m/S 724 mmHg 96%
    06:00 0°C° 0 mm 1 m/S 724 mmHg 96%
    07:00 0°C° 0 mm 1 m/S 725 mmHg 96%
    08:00 0°C° 0 mm 1 m/S 725 mmHg 96%
    09:00 -1°C° 0 mm 0 m/S 726 mmHg 95%
    10:00 -1°C° 0 mm 0 m/S 726 mmHg 94%
    11:00 -1°C° 0 mm 0 m/S 726 mmHg 92%
    12:00 0°C° 0 mm 0 m/S 726 mmHg 90%
    13:00 +1°C° 0 mm 1 m/S 726 mmHg 88%
    14:00 +1°C° 0 mm 1 m/S 726 mmHg 88%
    15:00 +1°C° 0 mm 1 m/S 726 mmHg 89%
    16:00 0°C° 0 mm 1 m/S 725 mmHg 90%
    17:00 0°C° 0 mm 1 m/S 725 mmHg 90%
    18:00 0°C° 0 mm 1 m/S 726 mmHg 91%
    19:00 -1°C° 0 mm 1 m/S 726 mmHg 91%
    20:00 -1°C° 0 mm 1 m/S 726 mmHg 92%
    21:00 -1°C° 0 mm 1 m/S 726 mmHg 92%
    22:00 -1°C° 0 mm 1 m/S 726 mmHg 93%
    23:00 -1°C° 0 mm 1 m/S 726 mmHg 93%
    Mehr zeigen